Weather in Ndola

Zambia     13°00′01″S   28°35′21″E
temp.,
°C
wind,
m/s
gust,
m/s
humid.,
%
clouds,
%
prec.,
mm/h
press.,
hPa
HPBL,
m
27 october, wed
wed2723:00+25ese5133094 0.0 1013716
02:00+21e3135323 0.0 1013581
05:00+21e3105555 0.0 1015760
08:00+26e594218 0.0 10161204
11:00+32e45256 0.0 10132921
14:00+32se352483 0.0 10082981
17:00+20ne2969100 2.8 1013226
20:00+21se4106397 3.1 1013200
28 october, thu
thu2823:00+20ese39643 0.0 1015228
02:00+19e310750 0.0 1014471
05:00+18ese311775 0.0 1015520
08:00+24e59535 0.0 10161115
11:00+30e453129 0.0 10132571
14:00+30se6532100 0.0 10091938
17:00+26sse584121 0.0 1010819
20:00+23se512490 0.0 1012638
29 october, fri
fri2923:00+21e312580 0.0 1012478
02:00+18e28690 0.0 1011180
05:00+17e210705 0.0 1013266
08:00+24e474429 0.0 1014903
11:00+32e232636 0.0 10111985
14:00+35ssw231815 0.0 10053783
17:00+33ssw231895 0.0 10043138
20:00+27se3102649 0.0 1008340
30 october, sat
sat3023:00+22ese27395 0.0 1010162
02:00+20ese39475 0.0 1009223
05:00+18ne235588 0.0 101164
08:00+26ene47335 0.0 1012610
11:00+34ene2318100 0.0 10082568
14:00+37ssw241354 0.0 10034316
17:00+34s5516100 0.0 10022861
20:00+26se3122888 0.0 1006248
31 october, sun
sun3123:00+23ese28316 0.0 1008141
02:00+22e31236100 0.0 1008333
05:00+21ne41139100 0.2 1010310
08:00+27ene3727100 0.2 1011674
11:00+34ne341715 0.0 10092769
14:00+38e121396 0.0 10044170
17:00+33sse461885 0.0 1003922
20:00+25se393363 0.0 1007150